Time,TemperatureF,DewpointF,PressureIn,WindDirection,WindDirectionDegrees,WindSpeedMPH,WindSpeedGustMPH,Humidity,HourlyPrecipIn,Conditions,Clouds,dailyrainin,SoftwareType,DateUTC
2013-04-17 00:00:00,74.7,72.6,29.82,SE,144,11.0,12.0,93,0.00,,---,0.00,VWS V14.01,2013-04-17 05:00:00,
2013-04-17 00:05:00,74.7,72.6,29.82,SSE,148,9.0,10.0,93,0.00,,---,0.00,VWS V14.01,2013-04-17 05:05:00,
2013-04-17 00:10:00,74.7,72.6,29.82,SE,130,8.0,11.0,93,0.00,,---,0.00,VWS V14.01,2013-04-17 05:10:00,
2013-04-17 00:15:00,74.7,72.6,29.82,SSE,156,13.0,13.0,93,0.00,,---,0.00,VWS V14.01,2013-04-17 05:15:00,
2013-04-17 00:20:00,74.7,72.6,29.82,SE,139,11.0,14.0,93,0.00,,---,0.00,VWS V14.01,2013-04-17 05:20:00,
2013-04-17 00:25:00,74.6,72.4,29.82,SSE,155,13.0,13.0,93,0.00,,---,0.00,VWS V14.01,2013-04-17 05:25:00,
2013-04-17 00:30:00,74.6,72.4,29.82,SSE,148,5.0,13.0,93,0.00,,---,0.00,VWS V14.01,2013-04-17 05:30:00,
2013-04-17 00:35:00,74.5,72.7,29.82,SE,146,9.0,12.0,94,0.00,,---,0.00,VWS V14.01,2013-04-17 05:35:00,
2013-04-17 00:40:00,74.5,72.7,29.82,SSE,163,11.0,13.0,94,0.00,,---,0.00,VWS V14.01,2013-04-17 05:40:00,
2013-04-17 00:44:00,74.5,72.7,29.82,South,170,12.0,13.0,94,0.00,,---,0.00,VWS V14.01,2013-04-17 05:44:00,
2013-04-17 00:49:00,74.5,72.7,29.82,SSE,163,5.0,12.0,94,0.00,,---,0.00,VWS V14.01,2013-04-17 05:49:00,
2013-04-17 00:54:00,74.5,72.7,29.82,SE,139,12.0,12.0,94,0.00,,---,0.00,VWS V14.01,2013-04-17 05:54:00,
2013-04-17 00:59:00,74.4,72.6,29.82,South,171,14.0,18.0,94,0.00,,---,0.00,VWS V14.01,2013-04-17 05:59:00,
2013-04-17 01:04:00,74.4,72.6,29.82,SE,140,10.0,12.0,94,0.00,,---,0.00,VWS V14.01,2013-04-17 06:04:00,
2013-04-17 01:09:00,74.3,72.5,29.81,SE,140,5.0,11.0,94,0.00,,---,0.00,VWS V14.01,2013-04-17 06:09:00,
2013-04-17 01:14:00,74.3,72.5,29.82,ESE,123,6.0,10.0,94,0.00,,---,0.00,VWS V14.01,2013-04-17 06:14:00,
2013-04-17 01:19:00,74.2,72.4,29.82,SE,144,13.0,13.0,94,0.00,,---,0.00,VWS V14.01,2013-04-17 06:19:00,
2013-04-17 01:24:00,74.2,72.4,29.82,SSE,150,6.0,10.0,94,0.00,,---,0.00,VWS V14.01,2013-04-17 06:24:00,
2013-04-17 01:29:00,74.2,72.4,29.82,SSE,151,4.0,6.0,94,0.00,,---,0.00,VWS V14.01,2013-04-17 06:29:00,
2013-04-17 01:34:00,74.1,72.3,29.82,SSE,148,5.0,11.0,94,0.00,,---,0.00,VWS V14.01,2013-04-17 06:34:00,
2013-04-17 01:39:00,74.1,72.3,29.82,SSE,158,14.0,14.0,94,0.00,,---,0.00,VWS V14.01,2013-04-17 06:39:00,
2013-04-17 01:44:00,74.0,72.2,29.81,SSE,159,7.0,12.0,94,0.00,,---,0.00,VWS V14.01,2013-04-17 06:44:00,
2013-04-17 01:49:00,74.0,72.5,29.81,ESE,113,12.0,13.0,95,0.00,,---,0.00,VWS V14.01,2013-04-17 06:49:00,
2013-04-17 01:54:00,73.9,72.4,29.81,SE,140,10.0,14.0,95,0.00,,---,0.00,VWS V14.01,2013-04-17 06:54:00,
2013-04-17 01:59:00,73.9,72.4,29.82,SSE,159,5.0,7.0,95,0.00,,---,0.00,VWS V14.01,2013-04-17 06:59:00,
2013-04-17 02:04:00,73.8,72.3,29.82,SE,146,5.0,10.0,95,0.00,,---,0.00,VWS V14.01,2013-04-17 07:04:00,
2013-04-17 02:09:00,73.8,72.3,29.82,SSE,150,9.0,12.0,95,0.00,,---,0.00,VWS V14.01,2013-04-17 07:09:00,
2013-04-17 02:14:00,73.7,72.2,29.82,SE,144,11.0,11.0,95,0.00,,---,0.00,VWS V14.01,2013-04-17 07:14:00,
2013-04-17 02:19:00,73.7,72.2,29.82,SE,132,4.0,11.0,95,0.00,,---,0.00,VWS V14.01,2013-04-17 07:19:00,
2013-04-17 02:24:00,73.7,72.2,29.82,SE,146,10.0,10.0,95,0.00,,---,0.00,VWS V14.01,2013-04-17 07:24:00,
2013-04-17 02:29:00,73.6,72.1,29.81,SE,132,14.0,14.0,95,0.00,,---,0.00,VWS V14.01,2013-04-17 07:29:00,
2013-04-17 02:34:00,73.7,72.2,29.81,SE,143,13.0,13.0,95,0.00,,---,0.00,VWS V14.01,2013-04-17 07:34:00,
2013-04-17 02:39:00,73.6,72.1,29.81,SE,136,2.0,7.0,95,0.00,,---,0.00,VWS V14.01,2013-04-17 07:39:00,
2013-04-17 02:44:00,73.6,72.1,29.81,SSE,156,4.0,10.0,95,0.00,,---,0.00,VWS V14.01,2013-04-17 07:44:00,
2013-04-17 02:49:00,73.5,72.0,29.81,ESE,113,10.0,13.0,95,0.00,,---,0.00,VWS V14.01,2013-04-17 07:49:00,
2013-04-17 02:54:00,73.5,72.0,29.81,SSE,157,10.0,10.0,95,0.00,,---,0.00,VWS V14.01,2013-04-17 07:54:00,
2013-04-17 02:59:00,73.5,72.0,29.81,South,180,7.0,10.0,95,0.00,,---,0.00,VWS V14.01,2013-04-17 07:59:00,
2013-04-17 03:04:00,73.5,72.0,29.81,SSE,153,3.0,6.0,95,0.00,,---,0.00,VWS V14.01,2013-04-17 08:04:00,
2013-04-17 03:09:00,73.5,72.0,29.81,SE,140,4.0,9.0,95,0.00,,---,0.00,VWS V14.01,2013-04-17 08:09:00,
2013-04-17 03:14:00,73.4,71.9,29.80,SE,132,10.0,14.0,95,0.00,,---,0.00,VWS V14.01,2013-04-17 08:14:00,
2013-04-17 03:19:00,73.4,71.9,29.80,SE,134,16.0,16.0,95,0.00,,---,0.00,VWS V14.01,2013-04-17 08:19:00,
2013-04-17 03:24:00,73.4,71.9,29.80,SSE,161,10.0,11.0,95,0.00,,---,0.00,VWS V14.01,2013-04-17 08:24:00,
2013-04-17 03:29:00,73.4,71.9,29.80,ESE,120,6.0,9.0,95,0.00,,---,0.00,VWS V14.01,2013-04-17 08:29:00,
2013-04-17 03:34:00,73.4,71.9,29.80,SE,138,5.0,7.0,95,0.01,,---,0.01,VWS V14.01,2013-04-17 08:34:00,
2013-04-17 03:39:00,73.4,71.9,29.80,SE,145,11.0,11.0,95,0.01,,---,0.01,VWS V14.01,2013-04-17 08:39:00,
2013-04-17 03:44:00,73.3,71.8,29.80,SSE,155,4.0,14.0,95,0.01,,---,0.01,VWS V14.01,2013-04-17 08:44:00,
2013-04-17 03:49:00,73.3,71.8,29.80,SSE,153,7.0,13.0,95,0.01,,---,0.01,VWS V14.01,2013-04-17 08:49:00,
2013-04-17 03:54:00,73.3,71.8,29.80,SSE,166,11.0,12.0,95,0.01,,---,0.01,VWS V14.01,2013-04-17 08:54:00,
2013-04-17 03:59:00,73.3,71.8,29.80,SE,134,9.0,9.0,95,0.01,,---,0.01,VWS V14.01,2013-04-17 08:59:00,
2013-04-17 04:04:00,73.3,71.8,29.79,SE,132,10.0,11.0,95,0.01,,---,0.01,VWS V14.01,2013-04-17 09:04:00,
2013-04-17 04:09:00,73.3,71.8,29.79,SE,140,10.0,11.0,95,0.01,,---,0.01,VWS V14.01,2013-04-17 09:09:00,
2013-04-17 04:14:00,73.2,71.7,29.80,SE,128,7.0,7.0,95,0.01,,---,0.01,VWS V14.01,2013-04-17 09:14:00,
2013-04-17 04:19:00,73.2,72.0,29.80,SE,142,15.0,15.0,96,0.01,,---,0.01,VWS V14.01,2013-04-17 09:19:00,
2013-04-17 04:24:00,73.2,72.0,29.80,SSE,161,11.0,11.0,96,0.01,,---,0.01,VWS V14.01,2013-04-17 09:24:00,
2013-04-17 04:29:00,73.2,72.0,29.80,SE,140,10.0,15.0,96,0.01,,---,0.01,VWS V14.01,2013-04-17 09:29:00,
2013-04-17 04:34:00,73.2,72.0,29.80,SSE,156,10.0,13.0,96,0.00,,---,0.01,VWS V14.01,2013-04-17 09:34:00,
2013-04-17 04:39:00,73.2,72.0,29.80,SSE,162,10.0,11.0,96,0.00,,---,0.01,VWS V14.01,2013-04-17 09:39:00,
2013-04-17 04:44:00,73.2,72.0,29.80,SE,138,10.0,10.0,96,0.00,,---,0.01,VWS V14.01,2013-04-17 09:44:00,
2013-04-17 04:49:00,73.2,72.0,29.80,ESE,123,7.0,10.0,96,0.00,,---,0.01,VWS V14.01,2013-04-17 09:49:00,
2013-04-17 04:54:00,73.1,71.9,29.79,SE,136,6.0,14.0,96,0.00,,---,0.01,VWS V14.01,2013-04-17 09:54:00,
2013-04-17 04:59:00,73.1,71.9,29.79,SE,132,9.0,11.0,96,0.00,,---,0.01,VWS V14.01,2013-04-17 09:59:00,
2013-04-17 05:04:00,73.1,71.9,29.79,SE,144,6.0,14.0,96,0.00,,---,0.01,VWS V14.01,2013-04-17 10:04:00,
2013-04-17 05:09:00,73.1,71.9,29.79,SSE,158,8.0,8.0,96,0.00,,---,0.01,VWS V14.01,2013-04-17 10:09:00,
2013-04-17 05:14:00,73.1,71.9,29.79,SSE,148,10.0,13.0,96,0.00,,---,0.01,VWS V14.01,2013-04-17 10:14:00,
2013-04-17 05:19:00,73.1,71.9,29.79,SSE,161,5.0,12.0,96,0.00,,---,0.01,VWS V14.01,2013-04-17 10:19:00,
2013-04-17 05:24:00,73.0,71.8,29.79,SE,126,11.0,11.0,96,0.00,,---,0.01,VWS V14.01,2013-04-17 10:24:00,
2013-04-17 05:29:00,73.0,71.8,29.79,SSE,152,11.0,11.0,96,0.00,,---,0.01,VWS V14.01,2013-04-17 10:29:00,
2013-04-17 05:34:00,73.0,71.8,29.79,ESE,113,6.0,13.0,96,0.00,,---,0.01,VWS V14.01,2013-04-17 10:34:00,
2013-04-17 05:39:00,73.0,71.8,29.79,SE,141,2.0,10.0,96,0.00,,---,0.01,VWS V14.01,2013-04-17 10:39:00,
2013-04-17 05:44:00,73.0,71.5,29.78,SSE,148,9.0,11.0,95,0.00,,---,0.01,VWS V14.01,2013-04-17 10:44:00,
2013-04-17 05:49:00,73.1,71.6,29.78,SSE,148,6.0,10.0,95,0.00,,---,0.01,VWS V14.01,2013-04-17 10:49:00,
2013-04-17 05:54:00,73.0,71.5,29.78,SE,134,9.0,16.0,95,0.00,,---,0.01,VWS V14.01,2013-04-17 10:54:00,
2013-04-17 05:59:00,73.0,71.5,29.78,ESE,123,9.0,13.0,95,0.00,,---,0.01,VWS V14.01,2013-04-17 10:59:00,
2013-04-17 06:04:00,73.0,71.5,29.79,ESE,117,9.0,12.0,95,0.00,,---,0.01,VWS V14.01,2013-04-17 11:04:00,
2013-04-17 06:09:00,73.0,71.5,29.78,SE,128,5.0,10.0,95,0.00,,---,0.01,VWS V14.01,2013-04-17 11:09:00,
2013-04-17 06:14:00,73.0,71.5,29.78,SE,134,6.0,7.0,95,0.00,,---,0.01,VWS V14.01,2013-04-17 11:14:00,
2013-04-17 06:19:00,73.0,71.5,29.78,SE,125,9.0,10.0,95,0.00,,---,0.01,VWS V14.01,2013-04-17 11:19:00,
2013-04-17 06:24:00,73.0,71.5,29.78,SE,131,6.0,12.0,95,0.00,,---,0.01,VWS V14.01,2013-04-17 11:24:00,
2013-04-17 06:29:00,73.0,71.5,29.78,SE,132,5.0,8.0,95,0.00,,---,0.01,VWS V14.01,2013-04-17 11:29:00,
2013-04-17 06:34:00,73.0,71.5,29.78,ESE,119,9.0,10.0,95,0.00,,---,0.01,VWS V14.01,2013-04-17 11:34:00,
2013-04-17 06:39:00,73.0,71.5,29.78,SE,140,3.0,7.0,95,0.00,,---,0.01,VWS V14.01,2013-04-17 11:39:00,
2013-04-17 06:43:00,73.0,71.5,29.78,SE,127,14.0,14.0,95,0.00,,---,0.01,VWS V14.01,2013-04-17 11:43:00,
2013-04-17 06:48:00,73.0,71.5,29.78,SE,133,6.0,11.0,95,0.00,,---,0.01,VWS V14.01,2013-04-17 11:48:00,
2013-04-17 06:53:00,73.0,71.5,29.78,ESE,103,10.0,13.0,95,0.00,,---,0.01,VWS V14.01,2013-04-17 11:53:00,
2013-04-17 06:58:00,73.1,71.6,29.78,ESE,120,9.0,12.0,95,0.00,,---,0.01,VWS V14.01,2013-04-17 11:58:00,
2013-04-17 07:03:00,73.0,71.5,29.79,SE,128,3.0,9.0,95,0.00,,---,0.01,VWS V14.01,2013-04-17 12:03:00,
2013-04-17 07:08:00,73.0,71.5,29.78,ESE,107,8.0,10.0,95,0.00,,---,0.01,VWS V14.01,2013-04-17 12:08:00,
2013-04-17 07:13:00,73.0,71.5,29.78,ESE,106,10.0,11.0,95,0.00,,---,0.01,VWS V14.01,2013-04-17 12:13:00,
2013-04-17 07:18:00,73.1,71.6,29.78,ESE,119,10.0,13.0,95,0.00,,---,0.01,VWS V14.01,2013-04-17 12:18:00,
2013-04-17 07:23:00,73.1,71.6,29.78,SE,146,9.0,16.0,95,0.00,,---,0.01,VWS V14.01,2013-04-17 12:23:00,
2013-04-17 07:28:00,73.1,71.6,29.78,ESE,107,13.0,14.0,95,0.00,,---,0.01,VWS V14.01,2013-04-17 12:28:00,
2013-04-17 07:33:00,73.1,71.6,29.78,ESE,119,8.0,11.0,95,0.00,,---,0.01,VWS V14.01,2013-04-17 12:33:00,
2013-04-17 07:38:00,73.2,71.7,29.79,SSE,157,9.0,12.0,95,0.00,,---,0.01,VWS V14.01,2013-04-17 12:38:00,
2013-04-17 07:43:00,73.2,71.7,29.79,SE,142,11.0,11.0,95,0.00,,---,0.01,VWS V14.01,2013-04-17 12:43:00,
2013-04-17 07:48:00,73.2,71.7,29.79,SE,137,4.0,7.0,95,0.00,,---,0.01,VWS V14.01,2013-04-17 12:48:00,
2013-04-17 07:53:00,73.2,71.7,29.79,ESE,123,9.0,15.0,95,0.00,,---,0.01,VWS V14.01,2013-04-17 12:53:00,
2013-04-17 07:58:00,73.3,71.8,29.79,SE,134,11.0,12.0,95,0.00,,---,0.01,VWS V14.01,2013-04-17 12:58:00,
2013-04-17 08:03:00,73.3,71.8,29.79,SE,134,5.0,11.0,95,0.00,,---,0.01,VWS V14.01,2013-04-17 13:03:00,
2013-04-17 08:08:00,73.3,71.8,29.78,SE,144,9.0,14.0,95,0.00,,---,0.01,VWS V14.01,2013-04-17 13:08:00,
2013-04-17 08:13:00,73.3,71.8,29.78,ESE,123,13.0,13.0,95,0.00,,---,0.01,VWS V14.01,2013-04-17 13:13:00,
2013-04-17 08:18:00,73.3,71.8,29.78,ESE,119,9.0,11.0,95,0.00,,---,0.01,VWS V14.01,2013-04-17 13:18:00,
2013-04-17 08:23:00,73.3,71.8,29.78,SE,125,5.0,10.0,95,0.00,,---,0.01,VWS V14.01,2013-04-17 13:23:00,
2013-04-17 08:28:00,73.2,71.7,29.79,SE,127,11.0,12.0,95,0.00,,---,0.01,VWS V14.01,2013-04-17 13:28:00,
2013-04-17 08:33:00,73.2,71.7,29.78,ESE,123,9.0,11.0,95,0.00,,---,0.01,VWS V14.01,2013-04-17 13:33:00,
2013-04-17 08:38:00,73.3,71.8,29.79,ESE,115,8.0,8.0,95,0.00,,---,0.01,VWS V14.01,2013-04-17 13:38:00,
2013-04-17 08:43:00,73.3,71.8,29.79,ESE,112,5.0,13.0,95,0.00,,---,0.01,VWS V14.01,2013-04-17 13:43:00,
2013-04-17 08:48:00,73.3,71.8,29.78,ESE,113,5.0,8.0,95,0.00,,---,0.01,VWS V14.01,2013-04-17 13:48:00,
2013-04-17 08:53:00,73.3,71.8,29.79,SE,128,7.0,10.0,95,0.00,,---,0.01,VWS V14.01,2013-04-17 13:53:00,
2013-04-17 08:58:00,73.3,71.8,29.78,ESE,115,10.0,11.0,95,0.00,,---,0.01,VWS V14.01,2013-04-17 13:58:00,
2013-04-17 09:03:00,73.4,71.9,29.79,ESE,113,6.0,11.0,95,0.00,,---,0.01,VWS V14.01,2013-04-17 14:03:00,
2013-04-17 09:08:00,73.6,72.1,29.79,ESE,103,7.0,12.0,95,0.00,,---,0.01,VWS V14.01,2013-04-17 14:08:00,
2013-04-17 09:13:00,73.7,72.2,29.79,SSE,147,7.0,12.0,95,0.00,,---,0.01,VWS V14.01,2013-04-17 14:13:00,
2013-04-17 09:18:00,73.8,72.3,29.79,ESE,106,5.0,6.0,95,0.00,,---,0.01,VWS V14.01,2013-04-17 14:18:00,
2013-04-17 09:23:00,74.0,72.2,29.79,SSE,156,8.0,8.0,94,0.00,,---,0.01,VWS V14.01,2013-04-17 14:23:00,
2013-04-17 09:28:00,74.0,72.2,29.79,SE,130,5.0,5.0,94,0.00,,---,0.01,VWS V14.01,2013-04-17 14:28:00,
2013-04-17 09:33:00,74.0,72.2,29.79,SE,138,4.0,6.0,94,0.00,,---,0.01,VWS V14.01,2013-04-17 14:33:00,
2013-04-17 09:38:00,74.0,72.2,29.79,ESE,120,6.0,8.0,94,0.00,,---,0.01,VWS V14.01,2013-04-17 14:38:00,
2013-04-17 09:43:00,73.8,72.0,29.80,SE,130,5.0,7.0,94,0.00,,---,0.01,VWS V14.01,2013-04-17 14:43:00,
2013-04-17 09:48:00,73.7,71.9,29.80,SE,137,11.0,11.0,94,0.00,,---,0.01,VWS V14.01,2013-04-17 14:48:00,
2013-04-17 09:53:00,73.7,71.9,29.80,ESE,118,4.0,5.0,94,0.00,,---,0.01,VWS V14.01,2013-04-17 14:53:00,
2013-04-17 09:58:00,73.6,71.8,29.80,SE,139,10.0,11.0,94,0.00,,---,0.01,VWS V14.01,2013-04-17 14:58:00,
2013-04-17 10:03:00,73.7,72.2,29.80,ESE,118,10.0,15.0,95,0.00,,---,0.01,VWS V14.01,2013-04-17 15:03:00,
2013-04-17 10:08:00,73.8,72.3,29.80,SE,136,10.0,15.0,95,0.00,,---,0.01,VWS V14.01,2013-04-17 15:08:00,
2013-04-17 10:13:00,73.9,72.4,29.80,ESE,118,4.0,12.0,95,0.00,,---,0.01,VWS V14.01,2013-04-17 15:13:00,
2013-04-17 10:18:00,73.9,72.1,29.80,SE,132,10.0,14.0,94,0.00,,---,0.01,VWS V14.01,2013-04-17 15:18:00,
2013-04-17 10:23:00,74.0,72.2,29.80,ESE,118,10.0,13.0,94,0.00,,---,0.01,VWS V14.01,2013-04-17 15:23:00,
2013-04-17 10:28:00,74.1,72.3,29.80,ESE,109,9.0,11.0,94,0.00,,---,0.01,VWS V14.01,2013-04-17 15:28:00,
2013-04-17 10:33:00,74.3,72.5,29.80,SSE,153,4.0,12.0,94,0.00,,---,0.01,VWS V14.01,2013-04-17 15:33:00,
2013-04-17 10:38:00,74.4,72.6,29.80,SE,141,12.0,12.0,94,0.00,,---,0.01,VWS V14.01,2013-04-17 15:38:00,
2013-04-17 10:43:00,74.6,72.4,29.80,SE,133,14.0,14.0,93,0.00,,---,0.01,VWS V14.01,2013-04-17 15:43:00,
2013-04-17 10:48:00,74.7,72.6,29.80,SSE,155,13.0,16.0,93,0.00,,---,0.01,VWS V14.01,2013-04-17 15:48:00,
2013-04-17 10:53:00,75.0,72.8,29.80,SE,132,9.0,12.0,93,0.00,,---,0.01,VWS V14.01,2013-04-17 15:53:00,
2013-04-17 10:58:00,75.2,72.7,29.80,ESE,109,10.0,14.0,92,0.00,,---,0.01,VWS V14.01,2013-04-17 15:58:00,
2013-04-17 11:03:00,75.5,73.0,29.80,SE,142,8.0,18.0,92,0.00,,---,0.01,VWS V14.01,2013-04-17 16:03:00,
2013-04-17 11:08:00,75.7,72.9,29.79,SE,141,11.0,15.0,91,0.00,,---,0.01,VWS V14.01,2013-04-17 16:08:00,
2013-04-17 11:13:00,75.9,73.1,29.79,SE,144,18.0,19.0,91,0.00,,---,0.01,VWS V14.01,2013-04-17 16:13:00,
2013-04-17 11:18:00,76.0,72.9,29.79,SSE,148,12.0,12.0,90,0.00,,---,0.01,VWS V14.01,2013-04-17 16:18:00,
2013-04-17 11:23:00,76.1,73.0,29.79,SE,137,5.0,16.0,90,0.00,,---,0.01,VWS V14.01,2013-04-17 16:23:00,
2013-04-17 11:28:00,76.6,73.4,29.79,SSE,159,14.0,19.0,90,0.00,,---,0.01,VWS V14.01,2013-04-17 16:28:00,
2013-04-17 11:33:00,76.7,73.2,29.79,ESE,115,10.0,13.0,89,0.00,,---,0.01,VWS V14.01,2013-04-17 16:33:00,
2013-04-17 11:38:00,76.8,73.3,29.78,SE,137,12.0,15.0,89,0.00,,---,0.01,VWS V14.01,2013-04-17 16:38:00,
2013-04-17 11:43:00,77.0,73.2,29.78,SSE,148,7.0,14.0,88,0.00,,---,0.01,VWS V14.01,2013-04-17 16:43:00,
2013-04-17 11:48:00,77.1,72.9,29.78,SSE,152,11.0,14.0,87,0.00,,---,0.01,VWS V14.01,2013-04-17 16:48:00,
2013-04-17 11:53:00,77.1,72.9,29.77,SE,140,12.0,16.0,87,0.00,,---,0.01,VWS V14.01,2013-04-17 16:53:00,
2013-04-17 11:58:00,77.3,73.1,29.77,SSE,150,14.0,19.0,87,0.00,,---,0.01,VWS V14.01,2013-04-17 16:58:00,
2013-04-17 12:03:00,77.5,73.3,29.77,SSE,151,10.0,13.0,87,0.00,,---,0.01,VWS V14.01,2013-04-17 17:03:00,
2013-04-17 12:08:00,77.5,73.0,29.76,SSE,167,13.0,15.0,86,0.00,,---,0.01,VWS V14.01,2013-04-17 17:08:00,
2013-04-17 12:13:00,77.7,73.2,29.76,SSE,152,13.0,13.0,86,0.00,,---,0.01,VWS V14.01,2013-04-17 17:13:00,
2013-04-17 12:17:00,78.0,73.1,29.76,SE,133,12.0,18.0,85,0.00,,---,0.01,VWS V14.01,2013-04-17 17:17:00,
2013-04-17 12:22:00,78.2,73.3,29.76,ESE,105,13.0,14.0,85,0.00,,---,0.01,VWS V14.01,2013-04-17 17:22:00,
2013-04-17 12:27:00,78.3,73.1,29.76,SSE,160,11.0,14.0,84,0.00,,---,0.01,VWS V14.01,2013-04-17 17:27:00,
2013-04-17 12:32:00,78.6,73.4,29.76,ESE,120,17.0,17.0,84,0.00,,---,0.01,VWS V14.01,2013-04-17 17:32:00,
2013-04-17 12:37:00,78.8,73.2,29.76,ESE,121,11.0,14.0,83,0.00,,---,0.01,VWS V14.01,2013-04-17 17:37:00,
2013-04-17 12:42:00,79.1,73.5,29.75,SE,140,8.0,15.0,83,0.00,,---,0.01,VWS V14.01,2013-04-17 17:42:00,
2013-04-17 12:47:00,79.4,73.4,29.75,SSE,163,10.0,14.0,82,0.00,,---,0.01,VWS V14.01,2013-04-17 17:47:00,
2013-04-17 12:52:00,79.5,73.2,29.75,SSE,157,14.0,20.0,81,0.00,,---,0.01,VWS V14.01,2013-04-17 17:52:00,
2013-04-17 12:57:00,79.6,73.6,29.75,SSE,156,12.0,14.0,82,0.00,,---,0.01,VWS V14.01,2013-04-17 17:57:00,
2013-04-17 13:02:00,79.7,73.4,29.74,SE,143,12.0,12.0,81,0.00,,---,0.01,VWS V14.01,2013-04-17 18:02:00,
2013-04-17 13:07:00,79.7,73.4,29.74,ESE,123,11.0,14.0,81,0.00,,---,0.01,VWS V14.01,2013-04-17 18:07:00,
2013-04-17 13:12:00,79.7,73.4,29.74,ESE,105,12.0,16.0,81,0.00,,---,0.01,VWS V14.01,2013-04-17 18:12:00,
2013-04-17 13:17:00,79.7,73.4,29.74,SSE,156,9.0,16.0,81,0.00,,---,0.01,VWS V14.01,2013-04-17 18:17:00,
2013-04-17 13:22:00,79.9,73.9,29.73,SSE,166,7.0,14.0,82,0.00,,---,0.01,VWS V14.01,2013-04-17 18:22:00,
2013-04-17 13:27:00,80.4,74.0,29.73,SSE,148,7.0,16.0,81,0.00,,---,0.01,VWS V14.01,2013-04-17 18:27:00,
2013-04-17 13:32:00,80.7,74.0,29.72,SE,146,18.0,22.0,80,0.00,,---,0.01,VWS V14.01,2013-04-17 18:32:00,
2013-04-17 13:37:00,80.3,73.6,29.72,SE,140,19.0,19.0,80,0.00,,---,0.01,VWS V14.01,2013-04-17 18:37:00,
2013-04-17 13:42:00,80.2,73.8,29.72,ESE,121,17.0,20.0,81,0.00,,---,0.01,VWS V14.01,2013-04-17 18:42:00,
2013-04-17 13:47:00,80.2,73.8,29.72,ESE,117,6.0,15.0,81,0.00,,---,0.01,VWS V14.01,2013-04-17 18:47:00,
2013-04-17 13:52:00,80.4,74.0,29.72,ESE,120,9.0,9.0,81,0.00,,---,0.01,VWS V14.01,2013-04-17 18:52:00,
2013-04-17 13:57:00,80.5,74.1,29.71,SE,141,16.0,16.0,81,0.00,,---,0.01,VWS V14.01,2013-04-17 18:57:00,
2013-04-17 14:02:00,80.8,74.1,29.71,ESE,111,9.0,16.0,80,0.00,,---,0.01,VWS V14.01,2013-04-17 19:02:00,
2013-04-17 14:07:00,80.8,74.1,29.71,SSE,160,5.0,12.0,80,0.00,,---,0.01,VWS V14.01,2013-04-17 19:07:00,
2013-04-17 14:12:00,80.7,74.0,29.71,SSE,150,15.0,18.0,80,0.00,,---,0.01,VWS V14.01,2013-04-17 19:12:00,
2013-04-17 14:17:00,80.6,74.2,29.70,SE,136,18.0,22.0,81,0.00,,---,0.01,VWS V14.01,2013-04-17 19:17:00,
2013-04-17 14:22:00,80.3,74.3,29.70,ESE,105,16.0,18.0,82,0.00,,---,0.01,VWS V14.01,2013-04-17 19:22:00,
2013-04-17 14:27:00,80.1,74.1,29.70,SE,134,7.0,10.0,82,0.00,,---,0.01,VWS V14.01,2013-04-17 19:27:00,
2013-04-17 14:32:00,80.2,74.2,29.70,ESE,117,12.0,13.0,82,0.00,,---,0.01,VWS V14.01,2013-04-17 19:32:00,
2013-04-17 14:37:00,80.1,74.1,29.69,ESE,118,10.0,18.0,82,0.00,,---,0.01,VWS V14.01,2013-04-17 19:37:00,
2013-04-17 14:42:00,80.1,74.1,29.69,SE,142,12.0,15.0,82,0.00,,---,0.01,VWS V14.01,2013-04-17 19:42:00,
2013-04-17 14:47:00,79.9,74.3,29.68,SE,135,6.0,10.0,83,0.00,,---,0.01,VWS V14.01,2013-04-17 19:47:00,
2013-04-17 14:52:00,79.9,74.3,29.68,SE,129,14.0,14.0,83,0.00,,---,0.01,VWS V14.01,2013-04-17 19:52:00,
2013-04-17 14:57:00,79.8,74.2,29.68,SE,137,13.0,22.0,83,0.00,,---,0.01,VWS V14.01,2013-04-17 19:57:00,
2013-04-17 15:02:00,79.9,74.3,29.68,SE,137,17.0,20.0,83,0.00,,---,0.01,VWS V14.01,2013-04-17 20:02:00,
2013-04-17 15:07:00,80.2,74.6,29.68,SE,133,9.0,15.0,83,0.00,,---,0.01,VWS V14.01,2013-04-17 20:07:00,
2013-04-17 15:12:00,80.5,74.5,29.68,SE,140,16.0,16.0,82,0.00,,---,0.01,VWS V14.01,2013-04-17 20:12:00,
2013-04-17 15:17:00,80.4,74.4,29.68,SE,128,18.0,23.0,82,0.00,,---,0.01,VWS V14.01,2013-04-17 20:17:00,
2013-04-17 15:22:00,80.1,74.5,29.67,ESE,107,10.0,16.0,83,0.00,,---,0.01,VWS V14.01,2013-04-17 20:22:00,
2013-04-17 15:27:00,80.1,74.5,29.67,SSE,155,13.0,17.0,83,0.00,,---,0.01,VWS V14.01,2013-04-17 20:27:00,
2013-04-17 15:32:00,80.1,74.5,29.67,ESE,103,11.0,14.0,83,0.00,,---,0.01,VWS V14.01,2013-04-17 20:32:00,
2013-04-17 15:37:00,79.5,74.2,29.67,ESE,123,15.0,15.0,84,0.00,,---,0.01,VWS V14.01,2013-04-17 20:37:00,
2013-04-17 15:42:00,79.6,74.3,29.67,SE,134,18.0,20.0,84,0.00,,---,0.01,VWS V14.01,2013-04-17 20:42:00,
2013-04-17 15:47:00,79.5,74.2,29.67,ESE,118,8.0,8.0,84,0.00,,---,0.01,VWS V14.01,2013-04-17 20:47:00,
2013-04-17 15:52:00,79.6,74.3,29.66,SE,142,16.0,16.0,84,0.00,,---,0.01,VWS V14.01,2013-04-17 20:52:00,
2013-04-17 15:57:00,79.6,74.3,29.66,ESE,106,16.0,18.0,84,0.00,,---,0.01,VWS V14.01,2013-04-17 20:57:00,
2013-04-17 16:02:00,79.3,74.1,29.66,ESE,105,12.0,13.0,84,0.00,,---,0.01,VWS V14.01,2013-04-17 21:02:00,
2013-04-17 16:07:00,79.2,74.3,29.65,SSE,151,7.0,9.0,85,0.00,,---,0.01,VWS V14.01,2013-04-17 21:07:00,
2013-04-17 16:12:00,79.3,74.1,29.65,SE,141,19.0,19.0,84,0.00,,---,0.01,VWS V14.01,2013-04-17 21:12:00,
2013-04-17 16:17:00,79.2,74.3,29.64,SE,126,19.0,19.0,85,0.00,,---,0.01,VWS V14.01,2013-04-17 21:17:00,
2013-04-17 16:22:00,79.5,74.6,29.64,SE,134,11.0,16.0,85,0.00,,---,0.01,VWS V14.01,2013-04-17 21:22:00,
2013-04-17 16:27:00,79.5,74.2,29.63,East,101,10.0,16.0,84,0.00,,---,0.01,VWS V14.01,2013-04-17 21:27:00,
2013-04-17 16:32:00,79.2,74.3,29.63,SE,129,12.0,14.0,85,0.00,,---,0.01,VWS V14.01,2013-04-17 21:32:00,
2013-04-17 16:37:00,79.1,74.6,29.63,SSE,156,13.0,15.0,86,0.00,,---,0.01,VWS V14.01,2013-04-17 21:37:00,
2013-04-17 16:42:00,79.3,74.4,29.63,ESE,113,11.0,11.0,85,0.00,,---,0.01,VWS V14.01,2013-04-17 21:42:00,
2013-04-17 16:47:00,79.3,74.4,29.63,SE,138,11.0,14.0,85,0.00,,---,0.01,VWS V14.01,2013-04-17 21:47:00,
2013-04-17 16:52:00,79.3,74.4,29.63,SE,136,14.0,17.0,85,0.00,,---,0.01,VWS V14.01,2013-04-17 21:52:00,
2013-04-17 16:57:00,79.3,74.4,29.63,SE,135,11.0,21.0,85,0.00,,---,0.01,VWS V14.01,2013-04-17 21:57:00,
2013-04-17 17:02:00,78.9,74.4,29.62,SE,125,14.0,20.0,86,0.00,,---,0.01,VWS V14.01,2013-04-17 22:02:00,
2013-04-17 17:07:00,78.7,74.2,29.62,ESE,122,10.0,20.0,86,0.00,,---,0.01,VWS V14.01,2013-04-17 22:07:00,
2013-04-17 17:12:00,78.3,74.1,29.62,SE,146,12.0,15.0,87,0.00,,---,0.01,VWS V14.01,2013-04-17 22:12:00,
2013-04-17 17:17:00,78.0,73.8,29.62,SE,136,9.0,12.0,87,0.00,,---,0.01,VWS V14.01,2013-04-17 22:17:00,
2013-04-17 17:22:00,77.9,74.1,29.62,SSE,157,11.0,14.0,88,0.00,,---,0.01,VWS V14.01,2013-04-17 22:22:00,
2013-04-17 17:27:00,77.8,74.0,29.62,ESE,116,19.0,19.0,88,0.00,,---,0.01,VWS V14.01,2013-04-17 22:27:00,
2013-04-17 17:32:00,77.7,73.9,29.62,ESE,122,19.0,19.0,88,0.00,,---,0.01,VWS V14.01,2013-04-17 22:32:00,
2013-04-17 17:37:00,77.8,74.0,29.62,ESE,122,17.0,19.0,88,0.00,,---,0.01,VWS V14.01,2013-04-17 22:37:00,
2013-04-17 17:42:00,77.8,74.0,29.62,SE,137,21.0,21.0,88,0.00,,---,0.01,VWS V14.01,2013-04-17 22:42:00,
2013-04-17 17:47:00,77.7,73.9,29.62,SSE,148,15.0,15.0,88,0.00,,---,0.01,VWS V14.01,2013-04-17 22:47:00,
2013-04-17 17:52:00,77.6,73.8,29.62,SE,127,11.0,13.0,88,0.00,,---,0.01,VWS V14.01,2013-04-17 22:52:00,
2013-04-17 17:57:00,77.6,73.8,29.62,SE,138,15.0,19.0,88,0.00,,---,0.01,VWS V14.01,2013-04-17 22:57:00,
2013-04-17 18:02:00,77.5,73.7,29.62,SSE,161,18.0,18.0,88,0.00,,---,0.01,VWS V14.01,2013-04-17 23:02:00,
2013-04-17 18:07:00,77.6,73.8,29.61,ESE,123,18.0,24.0,88,0.00,,---,0.01,VWS V14.01,2013-04-17 23:07:00,
2013-04-17 18:12:00,77.6,73.8,29.62,SE,129,13.0,19.0,88,0.00,,---,0.01,VWS V14.01,2013-04-17 23:12:00,
2013-04-17 18:17:00,77.7,73.9,29.62,SE,145,14.0,19.0,88,0.00,,---,0.01,VWS V14.01,2013-04-17 23:17:00,
2013-04-17 18:22:00,77.6,73.8,29.62,SE,140,17.0,21.0,88,0.00,,---,0.01,VWS V14.01,2013-04-17 23:22:00,
2013-04-17 18:27:00,77.4,73.9,29.61,South,179,18.0,20.0,89,0.00,,---,0.01,VWS V14.01,2013-04-17 23:27:00,
2013-04-17 18:32:00,77.3,73.8,29.61,East,92,15.0,19.0,89,0.00,,---,0.01,VWS V14.01,2013-04-17 23:32:00,
2013-04-17 18:37:00,77.3,73.8,29.61,ESE,123,16.0,23.0,89,0.00,,---,0.01,VWS V14.01,2013-04-17 23:37:00,
2013-04-17 18:42:00,77.1,73.6,29.61,ESE,115,9.0,22.0,89,0.00,,---,0.01,VWS V14.01,2013-04-17 23:42:00,
2013-04-17 18:47:00,77.0,73.5,29.61,SSE,149,11.0,22.0,89,0.00,,---,0.01,VWS V14.01,2013-04-17 23:47:00,
2013-04-17 18:52:00,76.9,73.4,29.61,SE,125,14.0,17.0,89,0.00,,---,0.01,VWS V14.01,2013-04-17 23:52:00,
2013-04-17 18:57:00,76.8,73.7,29.61,SSE,147,17.0,19.0,90,0.00,,---,0.01,VWS V14.01,2013-04-17 23:57:00,
2013-04-17 19:02:00,76.7,73.6,29.62,SE,134,16.0,16.0,90,0.00,,---,0.01,VWS V14.01,2013-04-18 00:02:00,
2013-04-17 19:07:00,76.6,73.4,29.62,East,82,14.0,15.0,90,0.00,,---,0.01,VWS V14.01,2013-04-18 00:07:00,
2013-04-17 19:12:00,76.5,73.3,29.62,SSE,147,13.0,22.0,90,0.00,,---,0.01,VWS V14.01,2013-04-18 00:12:00,
2013-04-17 19:17:00,76.5,73.3,29.62,SE,133,14.0,16.0,90,0.00,,---,0.01,VWS V14.01,2013-04-18 00:17:00,
2013-04-17 19:22:00,76.4,73.2,29.62,ESE,117,6.0,13.0,90,0.00,,---,0.01,VWS V14.01,2013-04-18 00:22:00,
2013-04-17 19:27:00,76.3,73.2,29.62,SSE,152,10.0,17.0,90,0.00,,---,0.01,VWS V14.01,2013-04-18 00:27:00,
2013-04-17 19:32:00,76.2,73.1,29.62,ESE,121,19.0,22.0,90,0.00,,---,0.01,VWS V14.01,2013-04-18 00:32:00,
2013-04-17 19:37:00,76.2,73.4,29.62,South,169,25.0,25.0,91,0.00,,---,0.01,VWS V14.01,2013-04-18 00:37:00,
2013-04-17 19:42:00,76.0,73.2,29.62,SSE,160,12.0,16.0,91,0.00,,---,0.01,VWS V14.01,2013-04-18 00:42:00,
2013-04-17 19:47:00,76.0,73.2,29.62,SE,130,15.0,21.0,91,0.00,,---,0.01,VWS V14.01,2013-04-18 00:47:00,
2013-04-17 19:52:00,75.9,73.1,29.62,SSE,153,10.0,15.0,91,0.00,,---,0.01,VWS V14.01,2013-04-18 00:52:00,
2013-04-17 19:57:00,75.9,73.1,29.62,SE,141,17.0,17.0,91,0.00,,---,0.01,VWS V14.01,2013-04-18 00:57:00,
2013-04-17 20:02:00,75.8,73.0,29.62,SE,134,14.0,20.0,91,0.00,,---,0.01,VWS V14.01,2013-04-18 01:02:00,
2013-04-17 20:07:00,75.8,73.0,29.62,ESE,113,10.0,18.0,91,0.00,,---,0.01,VWS V14.01,2013-04-18 01:07:00,
2013-04-17 20:12:00,75.8,73.0,29.62,SE,140,16.0,17.0,91,0.00,,---,0.01,VWS V14.01,2013-04-18 01:12:00,
2013-04-17 20:17:00,75.7,73.2,29.62,SE,146,22.0,22.0,92,0.00,,---,0.01,VWS V14.01,2013-04-18 01:17:00,
2013-04-17 20:22:00,75.7,73.2,29.62,SE,144,19.0,25.0,92,0.00,,---,0.01,VWS V14.01,2013-04-18 01:22:00,
2013-04-17 20:27:00,75.6,73.1,29.62,SE,135,11.0,16.0,92,0.00,,---,0.01,VWS V14.01,2013-04-18 01:27:00,
2013-04-17 20:32:00,75.5,73.0,29.61,ESE,123,15.0,19.0,92,0.00,,---,0.01,VWS V14.01,2013-04-18 01:32:00,
2013-04-17 20:37:00,75.4,72.9,29.61,ESE,111,18.0,18.0,92,0.00,,---,0.01,VWS V14.01,2013-04-18 01:37:00,
2013-04-17 20:42:00,75.3,72.8,29.62,SSE,162,12.0,16.0,92,0.00,,---,0.01,VWS V14.01,2013-04-18 01:42:00,
2013-04-17 20:47:00,75.2,72.7,29.63,SE,144,7.0,14.0,92,0.00,,---,0.01,VWS V14.01,2013-04-18 01:47:00,
2013-04-17 20:52:00,75.2,72.7,29.63,South,178,15.0,21.0,92,0.00,,---,0.01,VWS V14.01,2013-04-18 01:52:00,
2013-04-17 20:57:00,75.1,72.9,29.64,ENE,77,14.0,23.0,93,0.00,,---,0.01,VWS V14.01,2013-04-18 01:57:00,
2013-04-17 21:02:00,75.1,72.9,29.65,SSE,152,11.0,12.0,93,0.00,,---,0.01,VWS V14.01,2013-04-18 02:02:00,
2013-04-17 21:07:00,75.0,72.8,29.65,SE,138,15.0,17.0,93,0.00,,---,0.01,VWS V14.01,2013-04-18 02:07:00,
2013-04-17 21:11:00,75.0,72.8,29.65,SSE,155,8.0,15.0,93,0.00,,---,0.01,VWS V14.01,2013-04-18 02:11:00,
2013-04-17 21:16:00,75.0,72.8,29.65,SE,142,13.0,22.0,93,0.00,,---,0.01,VWS V14.01,2013-04-18 02:16:00,
2013-04-17 21:21:00,74.9,72.7,29.65,SSE,150,10.0,15.0,93,0.00,,---,0.01,VWS V14.01,2013-04-18 02:21:00,
2013-04-17 21:26:00,74.9,72.7,29.65,ESE,115,11.0,14.0,93,0.00,,---,0.01,VWS V14.01,2013-04-18 02:26:00,
2013-04-17 21:31:00,74.9,72.7,29.65,SSE,155,18.0,20.0,93,0.00,,---,0.01,VWS V14.01,2013-04-18 02:31:00,
2013-04-17 21:36:00,74.9,72.7,29.66,SE,144,12.0,13.0,93,0.00,,---,0.01,VWS V14.01,2013-04-18 02:36:00,
2013-04-17 21:41:00,74.8,72.6,29.66,SSE,155,14.0,18.0,93,0.00,,---,0.01,VWS V14.01,2013-04-18 02:41:00,
2013-04-17 21:47:00,74.8,72.6,29.66,SE,137,15.0,15.0,93,0.00,,---,0.01,VWS V14.01,2013-04-18 02:47:00,
2013-04-17 21:52:00,74.8,72.6,29.66,SE,144,8.0,13.0,93,0.00,,---,0.01,VWS V14.01,2013-04-18 02:52:00,
2013-04-17 21:57:00,74.7,72.6,29.67,SE,137,13.0,15.0,93,0.00,,---,0.01,VWS V14.01,2013-04-18 02:57:00,
2013-04-17 22:02:00,74.7,72.6,29.67,SE,136,9.0,12.0,93,0.00,,---,0.01,VWS V14.01,2013-04-18 03:02:00,
2013-04-17 22:07:00,74.6,72.4,29.67,SSE,162,14.0,20.0,93,0.00,,---,0.01,VWS V14.01,2013-04-18 03:07:00,
2013-04-17 22:12:00,74.6,72.8,29.66,SSE,148,14.0,17.0,94,0.00,,---,0.01,VWS V14.01,2013-04-18 03:12:00,
2013-04-17 22:16:00,74.6,72.8,29.67,SE,128,20.0,20.0,94,0.00,,---,0.01,VWS V14.01,2013-04-18 03:16:00,
2013-04-17 22:21:00,74.5,72.7,29.67,SE,143,8.0,16.0,94,0.00,,---,0.01,VWS V14.01,2013-04-18 03:21:00,
2013-04-17 22:26:00,74.5,72.7,29.67,SSE,155,7.0,15.0,94,0.00,,---,0.01,VWS V14.01,2013-04-18 03:26:00,
2013-04-17 22:31:00,74.4,72.6,29.67,SSE,157,11.0,20.0,94,0.00,,---,0.01,VWS V14.01,2013-04-18 03:31:00,
2013-04-17 22:36:00,74.4,72.6,29.67,SSE,163,8.0,10.0,94,0.00,,---,0.01,VWS V14.01,2013-04-18 03:36:00,
2013-04-17 22:41:00,74.4,72.6,29.67,SSE,161,12.0,13.0,94,0.00,,---,0.01,VWS V14.01,2013-04-18 03:41:00,
2013-04-17 22:46:00,74.3,72.5,29.67,SE,128,12.0,17.0,94,0.00,,---,0.01,VWS V14.01,2013-04-18 03:46:00,
2013-04-17 22:51:00,74.3,72.5,29.67,SSE,147,11.0,11.0,94,0.00,,---,0.01,VWS V14.01,2013-04-18 03:51:00,
2013-04-17 22:56:00,74.2,72.4,29.67,SSE,163,20.0,21.0,94,0.00,,---,0.01,VWS V14.01,2013-04-18 03:56:00,
2013-04-17 23:01:00,74.2,72.4,29.67,SE,146,15.0,16.0,94,0.00,,---,0.01,VWS V14.01,2013-04-18 04:01:00,
2013-04-17 23:06:00,74.2,72.4,29.67,ESE,122,10.0,14.0,94,0.00,,---,0.01,VWS V14.01,2013-04-18 04:06:00,
2013-04-17 23:11:00,74.2,72.4,29.67,SE,125,10.0,11.0,94,0.00,,---,0.01,VWS V14.01,2013-04-18 04:11:00,
2013-04-17 23:16:00,74.2,72.4,29.68,SSE,163,18.0,18.0,94,0.00,,---,0.01,VWS V14.01,2013-04-18 04:16:00,
2013-04-17 23:21:00,74.2,72.4,29.67,SE,142,13.0,14.0,94,0.00,,---,0.01,VWS V14.01,2013-04-18 04:21:00,
2013-04-17 23:26:00,74.2,72.7,29.67,SE,127,15.0,17.0,95,0.00,,---,0.01,VWS V14.01,2013-04-18 04:26:00,
2013-04-17 23:31:00,74.2,72.7,29.67,SSE,164,9.0,16.0,95,0.00,,---,0.01,VWS V14.01,2013-04-18 04:31:00,
2013-04-17 23:36:00,74.1,72.6,29.67,SE,145,9.0,14.0,95,0.00,,---,0.01,VWS V14.01,2013-04-18 04:36:00,
2013-04-17 23:41:00,74.1,72.6,29.67,SSE,153,10.0,16.0,95,0.00,,---,0.01,VWS V14.01,2013-04-18 04:41:00,
2013-04-17 23:46:00,74.1,72.6,29.67,SSE,159,10.0,12.0,95,0.00,,---,0.01,VWS V14.01,2013-04-18 04:46:00,
2013-04-17 23:51:00,74.1,72.6,29.66,SE,134,16.0,16.0,95,0.00,,---,0.01,VWS V14.01,2013-04-18 04:51:00,
2013-04-17 23:56:00,74.1,72.6,29.66,SSE,155,10.0,12.0,95,0.00,,---,0.01,VWS V14.01,2013-04-18 04:56:00,